Location: Roanoke
(37.2710°N, 79.9420°W)
Time: 18:11:49
(UTC-05:00)

Transit 4A - All Passes

Search period start: 12 November 2019 00:00
Search period end: 22 November 2019 00:00
Orbit: 868 x 976 km, 66.8° (Epoch: 12 November)

Date Brightness Start Highest point End Pass type
(mag) Time Alt. Az. Time Alt. Az. Time Alt. Az.
12 Nov - 00:40:36 10° WSW 00:46:02 30° NW 00:51:24 10° N night (unlit)
12 Nov - 07:58:52 10° N 08:04:09 33° NE 08:09:20 10° ESE daylight
12 Nov - 09:45:10 10° NW 09:50:27 35° WSW 09:55:38 10° S daylight
12 Nov - 23:02:31 10° SSW 23:08:47 69° ESE 23:14:57 10° NNE night (unlit)
13 Nov - 00:51:01 10° W 00:55:40 21° NW 01:00:16 10° N night (unlit)
13 Nov - 08:07:55 10° NNW 08:13:38 49° ENE 08:19:14 10° SE daylight
13 Nov - 09:55:07 10° NW 09:59:34 23° WSW 10:03:57 10° SSW daylight
13 Nov - 21:29:19 10° SE 21:32:29 14° ESE 21:35:38 10° ENE night (unlit)
13 Nov - 23:11:47 10° SSW 23:18:07 81° WNW 23:24:19 10° NNE night (unlit)
14 Nov - 01:01:56 10° WNW 01:05:23 15° NW 01:08:49 10° N night (unlit)
14 Nov - 06:33:03 10° NNE 06:35:37 13° NE 06:38:10 10° ENE visible
14 Nov - 08:17:08 10° NNW 08:23:02 74° ENE 08:28:49 10° SSE daylight
14 Nov - 10:05:43 10° WNW 10:08:36 14° WSW 10:11:28 10° SW daylight
14 Nov - 21:36:48 10° SSE 21:41:34 23° ESE 21:46:15 10° ENE night (unlit)
14 Nov - 23:21:20 10° SW 23:27:29 55° WNW 23:33:33 10° NNE night (unlit)
15 Nov - 01:14:10 10° NW 01:15:13 10° NW 01:16:17 10° NNW night (unlit)
15 Nov - 06:41:23 10° N 06:45:23 18° NE 06:49:19 10° E daylight
15 Nov - 08:26:28 10° NNW 08:32:21 74° WSW 08:38:06 10° SSE daylight
15 Nov - 21:45:05 10° S 21:50:41 35° ESE 21:56:13 10° NE night (unlit)
15 Nov - 23:31:11 10° WSW 23:36:58 37° NW 23:42:39 10° NNE night (unlit)
16 Nov - 06:50:08 10° N 06:55:01 26° NE 06:59:50 10° ESE daylight
16 Nov - 08:35:59 10° NW 08:41:34 47° WSW 08:47:05 10° S daylight
16 Nov - 21:53:47 10° S 21:59:53 53° ESE 22:05:52 10° NE night (unlit)
16 Nov - 23:41:21 10° WSW 23:46:31 26° NW 23:51:37 10° N night (unlit)
17 Nov - 06:59:07 10° NNW 07:04:35 38° NE 07:09:56 10° ESE daylight
17 Nov - 08:45:43 10° NW 08:50:44 30° WSW 08:55:41 10° SSW daylight
17 Nov - 22:02:50 10° SSW 22:09:09 80° ESE 22:15:20 10° NNE night (unlit)
17 Nov - 23:51:55 10° W 23:56:10 19° NW 00:00:22 10° N night (unlit)
18 Nov - 05:26:09 10° NE 05:26:20 10° NE 05:26:29 10° NE visible
18 Nov - 07:08:14 10° NNW 07:14:01 57° ENE 07:19:43 10° SE daylight
18 Nov - 08:55:50 10° WNW 08:59:49 19° WSW 09:03:46 10° SSW daylight
18 Nov - 20:28:54 10° SE 20:32:46 17° ESE 20:36:35 10° ENE night (unlit)
18 Nov - 22:12:13 10° SW 22:18:29 70° WNW 22:24:39 10° NNE night (unlit)
19 Nov - 00:03:07 10° WNW 00:05:56 13° NW 00:08:44 10° NNW night (unlit)
19 Nov - 05:32:59 10° N 05:36:09 15° NE 05:39:17 10° ENE visible
19 Nov - 07:17:29 10° NNW 07:23:24 85° ENE 07:29:11 10° SSE daylight
19 Nov - 09:07:03 10° W 09:08:50 11° WSW 09:10:38 10° WSW daylight
19 Nov - 20:36:45 10° SSE 20:41:51 27° ESE 20:46:53 10° NE night (unlit)
19 Nov - 22:21:52 10° SW 22:27:54 48° WNW 22:33:51 10° NNE night (unlit)
20 Nov - 05:41:31 10° N 05:45:52 21° NE 05:50:09 10° E visible
20 Nov - 07:26:54 10° NW 07:32:40 63° WSW 07:38:22 10° SSE daylight
20 Nov - 20:45:11 10° S 20:51:01 40° ESE 20:56:43 10° NE night (unlit)
20 Nov - 22:31:50 10° WSW 22:37:25 33° NW 22:42:53 10° N night (unlit)
21 Nov - 05:50:22 10° N 05:55:28 30° NE 06:00:30 10° ESE visible
21 Nov - 07:36:28 10° NW 07:41:53 40° WSW 07:47:13 10° S daylight
21 Nov - 20:54:03 10° SSW 21:00:14 62° ESE 21:06:18 10° NE night (unlit)
21 Nov - 22:42:08 10° W 22:47:00 23° NW 22:51:47 10° N night (unlit)
